Change the Weather History Date:

Friday, December 7, 2012

  Actual Average (KTVL) Record (KTVL)
Temperature  
Mean Temperature 35 °F 30 °F  
Max Temperature 51 °F 44 °F 56 °F (2010)
Min Temperature 19 °F 17 °F -3 °F (2013)
Degree Days  
Heating Degree Days 30 34  
Month to date heating degree days 236  
Since 1 July heating degree days 2329  
Cooling Degree Days 0 0  
Month to date cooling degree days 0  
Year to date cooling degree days 31  
Moisture  
Dew Point 15 °F    
Average Humidity 57    
Maximum Humidity 85    
Minimum Humidity 15    
Precipitation  
Precipitation 0.00 in - 1.43 in (1952)
Month to date precipitation  
Year to date precipitation  
Sea Level Pressure  
Sea Level Pressure 30.15 in    
Wind  
Wind Speed 1 mph ()    
Max Wind Speed 8 mph    
Max Gust Speed -    
Visibility 10.0 miles    
Events      
T = Trace of Precipitation, MM = Missing Value Source: Averaged Metar Reports

Daily Weather History Graph

Daily Weather History Graph

Search for Another Location

Airport or City:

Trip Planner

Search our weather history database for the weather conditions in past years. The results will help you decide how hot, cold, wet, or windy it might be!

Date:

Astronomy

Dec. 07, 2012 Rise Set
Actual Time 7:02 AM PST 4:37 PM PST
Civil Twilight 6:32 AM PST 5:06 PM PST
Nautical Twilight 5:59 AM PST 5:39 PM PST
Astronomical Twilight 5:27 AM PST 6:11 PM PST
Moon 12:31 AM PST (12/7) 12:33 PM PST (12/7)
Length of Visible Light 10h 34m
Length of Day
9h 35m
Last Quarter, 37% of the Moon is Illuminated
Dec 7
Last Quarter
Dec 13
New
Dec 19
First Quarter
Dec 28
Full
Jan 4
Last Quarter

Hourly Weather History & Observations

Time (PST) Temp. Windchill Dew Point Humidity Pressure Visibility Wind Dir Wind Speed Gust Speed Precip Events Conditions
12:52 AM 25.0 °F - 19.9 °F 81% 30.12 in 10.0 mi Calm Calm - N/A   Clear
1:52 AM 24.1 °F - 19.9 °F 84% 30.12 in 10.0 mi Calm Calm - N/A   Clear
2:52 AM 23.0 °F - 19.0 °F 85% 30.14 in 10.0 mi Calm Calm - N/A   Clear
3:52 AM 21.9 °F - 18.0 °F 85% 30.16 in 10.0 mi Calm Calm - N/A   Clear
4:52 AM 21.9 °F - 17.1 °F 82% 30.19 in 10.0 mi Calm Calm - N/A   Clear
5:52 AM 21.0 °F - 16.0 °F 81% 30.19 in 10.0 mi Calm Calm - N/A   Clear
6:52 AM 19.9 °F - 15.1 °F 81% 30.23 in 10.0 mi Calm Calm - N/A   Clear
7:52 AM 23.0 °F - 17.1 °F 78% 30.25 in 10.0 mi Calm Calm - N/A   Clear
8:52 AM 26.1 °F - 21.0 °F 81% 30.25 in 10.0 mi Calm Calm - N/A   Clear
9:52 AM 32.0 °F - 23.0 °F 69% 30.22 in 10.0 mi Calm Calm - N/A   Clear
10:52 AM 39.9 °F - 21.9 °F 49% 30.18 in 10.0 mi Calm Calm - N/A   Clear
11:52 AM 46.9 °F - 16.0 °F 29% 30.12 in 10.0 mi Calm Calm - N/A   Clear
12:52 PM 50.0 °F - 10.0 °F 20% 30.08 in 10.0 mi Variable 5.8 mph - N/A   Clear
1:52 PM 51.1 °F - 8.1 °F 18% 30.06 in 10.0 mi SE 8.1 mph - N/A   Clear
2:52 PM 51.1 °F - 5.0 °F 15% 30.06 in 10.0 mi Calm Calm - N/A   Clear
3:52 PM 46.9 °F - 12.0 °F 24% 30.09 in 10.0 mi South 4.6 mph - N/A   Clear
4:52 PM 39.0 °F 36.8 °F 12.9 °F 34% 30.13 in 10.0 mi NNW 3.5 mph - N/A   Clear
5:52 PM 36.0 °F - 14.0 °F 41% 30.16 in 10.0 mi Calm Calm - N/A   Clear
6:52 PM 33.1 °F - 12.9 °F 43% 30.18 in 10.0 mi Calm Calm - N/A   Clear
7:52 PM 30.9 °F - 12.0 °F 46% 30.19 in 10.0 mi Calm Calm - N/A   Clear
8:52 PM 30.0 °F - 12.9 °F 49% 30.18 in 10.0 mi Calm Calm - N/A   Clear
9:52 PM 28.0 °F - 10.9 °F 49% 30.16 in 10.0 mi Calm Calm - N/A   Clear
10:52 PM 23.0 °F - 15.1 °F 72% 30.14 in 10.0 mi Calm Calm - N/A   Clear
11:52 PM 23.0 °F 18.4 °F 15.1 °F 72% 30.11 in 10.0 mi Variable 3.5 mph - N/A   Clear